| time (UTC) | temp F | wind direction | speed MPH | gust MPH | rain 1hr in | rain 24hr in | rain mn in | humidity % | barometer mb |
| 20260504001604 | 47 | 0 | 0.0 | 0.0 | 0.00 | 0.01 | 0.00 | 69 | 1018.4 |
| 20260504001104 | 48 | 0 | 0.0 | 0.0 | 0.00 | 0.01 | 0.00 | 68 | 1018.4 |
| 20260503234104 | 49 | 0 | 0.0 | 0.0 | 0.00 | 0.01 | 0.00 | 66 | 1018.4 |
| 20260503231103 | 50 | 0 | 0.0 | 0.0 | 0.00 | 0.01 | 0.00 | 64 | 1018.4 |
| 20260503224604 | 50 | 0 | 0.0 | 0.0 | 0.00 | 0.01 | 0.00 | 64 | 1018.2 |
| 20260503224104 | 50 | 0 | 0.0 | 0.0 | 0.00 | 0.01 | 0.00 | 65 | 1018.2 |
| 20260503223603 | 50 | 0 | 0.0 | 0.0 | 0.00 | 0.01 | 0.00 | 65 | 1018.2 |
| 20260503221603 | 51 | 0 | 0.0 | 0.0 | 0.00 | 0.01 | 0.00 | 64 | 1018.0 |
| 20260503210603 | 53 | 0 | 0.0 | 0.0 | 0.00 | 0.01 | 0.00 | 58 | 1018.0 |
| 20260503210105 | 53 | 0 | 0.0 | 0.0 | 0.00 | 0.01 | 0.00 | 58 | 1018.0 |
| 20260503204603 | 53 | 0 | 0.0 | 0.0 | 0.00 | 0.01 | 0.01 | 56 | 1018.0 |
| 20260503204104 | 53 | 0 | 0.0 | 0.0 | 0.00 | 0.01 | 0.01 | 56 | 1018.0 |
| 20260503203104 | 53 | 0 | 0.0 | 0.0 | 0.00 | 0.01 | 0.01 | 56 | 1018.0 |
| 20260503201104 | 53 | 0 | 0.0 | 0.0 | 0.00 | 0.01 | 0.01 | 56 | 1017.9 |
| 20260503193604 | 55 | 0 | 0.0 | 0.0 | 0.00 | 0.01 | 0.01 | 57 | 1017.9 |
| 20260503191604 | 56 | 0 | 0.0 | 0.0 | 0.00 | 0.01 | 0.01 | 56 | 1017.9 |
| 20260503191103 | 57 | 0 | 0.0 | 0.0 | 0.00 | 0.01 | 0.01 | 55 | 1017.9 |
| 20260503190604 | 57 | 0 | 0.0 | 0.0 | 0.00 | 0.01 | 0.01 | 54 | 1017.6 |
| 20260503184104 | 58 | 0 | 0.0 | 0.0 | 0.00 | 0.01 | 0.01 | 51 | 1017.6 |
| 20260503180603 | 59 | 0 | 0.0 | 0.0 | 0.00 | 0.01 | 0.01 | 47 | 1016.5 |
| 20260503180104 | 60 | 0 | 0.0 | 0.0 | 0.00 | 0.01 | 0.01 | 47 | 1016.5 |
| 20260503174604 | 61 | 0 | 0.0 | 0.0 | 0.00 | 0.01 | 0.01 | 44 | 1016.5 |
| 20260503173604 | 61 | 0 | 0.0 | 0.0 | 0.00 | 0.01 | 0.01 | 42 | 1016.5 |
| 20260503173104 | 61 | 0 | 0.0 | 0.0 | 0.00 | 0.01 | 0.01 | 42 | 1016.5 |
| 20260503171604 | 62 | 68 | 0.0 | 0.0 | 0.00 | 0.01 | 0.01 | 41 | 1016.5 |
| 20260503171104 | 63 | 2 | 0.0 | 0.0 | 0.00 | 0.01 | 0.01 | 41 | 1016.4 |
| 20260503170103 | 63 | 18 | 0.0 | 0.0 | 0.00 | 0.01 | 0.01 | 39 | 1016.1 |
| 20260503150604 | 65 | 61 | 0.0 | 0.0 | 0.00 | 0.01 | 0.01 | 35 | 1016.4 |
| 20260503130104 | 63 | 0 | 0.0 | 0.0 | 0.00 | 0.01 | 0.01 | 47 | 1017.2 |
| 20260503120104 | 61 | 0 | 0.0 | 0.0 | 0.00 | 0.01 | 0.01 | 47 | 1017.7 |
| 20260503090104 | 55 | 326 | 0.0 | 0.0 | 0.00 | 0.01 | 0.01 | 62 | 1018.5 |
| 20260503081603 | 55 | 356 | 0.0 | 0.0 | 0.00 | 0.01 | 0.01 | 62 | 1018.5 |
| 20260503081103 | 55 | 315 | 0.0 | 0.0 | 0.00 | 0.01 | 0.01 | 62 | 1018.5 |
| 20260503080603 | 56 | 294 | 0.0 | 0.0 | 0.00 | 0.01 | 0.01 | 63 | 1018.5 |
| 20260503080104 | 56 | 298 | 0.0 | 3.0 | 0.00 | 0.01 | 0.01 | 62 | 1018.5 |
| 20260503071103 | 52 | 19 | 0.0 | 0.0 | 0.00 | 0.01 | 0.01 | 64 | 1018.1 |
| 20260503070103 | 52 | 72 | 0.0 | 1.0 | 0.00 | 0.01 | 0.01 | 74 | 1018.1 |
| 20260503054604 | 48 | 355 | 0.0 | 0.0 | 0.00 | 0.01 | 0.01 | 83 | 1018.1 |
| 20260503054104 | 48 | 355 | 0.0 | 0.0 | 0.00 | 0.01 | 0.01 | 83 | 1017.4 |
| 20260503053603 | 48 | 22 | 0.0 | 0.0 | 0.00 | 0.01 | 0.01 | 84 | 1017.4 |
| 20260503051603 | 48 | 0 | 0.0 | 0.0 | 0.00 | 0.01 | 0.01 | 85 | 1017.4 |
| 20260503050604 | 49 | 0 | 0.0 | 0.0 | 0.00 | 0.01 | 0.01 | 85 | 1017.4 |
| 20260503050103 | 48 | 0 | 0.0 | 0.0 | 0.00 | 0.01 | 0.01 | 84 | 1017.4 |
| 20260503044604 | 49 | 0 | 0.0 | 0.0 | 0.00 | 0.01 | 0.01 | 84 | 1017.4 |
| 20260503044104 | 49 | 0 | 0.0 | 0.0 | 0.00 | 0.01 | 0.01 | 84 | 1017.4 |
| 20260503043604 | 49 | 0 | 0.0 | 0.0 | 0.00 | 0.01 | 0.01 | 84 | 1017.4 |
| 20260503041604 | 48 | 0 | 0.0 | 0.0 | 0.01 | 0.01 | 0.01 | 84 | 1017.4 |
| 20260503041104 | 48 | 0 | 0.0 | 0.0 | 0.01 | 0.01 | 0.01 | 84 | 1017.4 |
| 20260503040104 | 48 | 0 | 0.0 | 1.0 | 0.01 | 0.01 | 0.01 | 83 | 1017.1 |
| 20260503034604 | 48 | 0 | 0.0 | 0.0 | 0.01 | 0.01 | 0.01 | 83 | 1017.1 |
| 20260503033104 | 48 | 0 | 0.0 | 0.0 | 0.01 | 0.01 | 0.01 | 82 | 1017.1 |
| 20260503031604 | 48 | 0 | 0.0 | 0.0 | 0.00 | 0.00 | 0.00 | 82 | 1017.1 |
| 20260503031104 | 48 | 0 | 0.0 | 1.0 | 0.00 | 0.00 | 0.00 | 82 | 1017.1 |
| 20260503030103 | 48 | 0 | 0.0 | 0.0 | 0.00 | 0.00 | 0.00 | 82 | 1017.1 |
| 20260503023603 | 48 | 0 | 0.0 | 1.0 | 0.00 | 0.00 | 0.00 | 82 | 1017.1 |
| 20260503021603 | 48 | 0 | 0.0 | 0.0 | 0.00 | 0.00 | 0.00 | 82 | 1017.1 |
| 20260503020104 | 48 | 0 | 0.0 | 0.0 | 0.00 | 0.00 | 0.00 | 82 | 1017.0 |
| 20260503014103 | 48 | 0 | 0.0 | 0.0 | 0.00 | 0.00 | 0.00 | 82 | 1017.0 |
| 20260503013104 | 48 | 0 | 0.0 | 0.0 | 0.00 | 0.00 | 0.00 | 81 | 1017.0 |
| 20260503011104 | 48 | 0 | 0.0 | 0.0 | 0.00 | 0.00 | 0.00 | 81 | 1017.0 |
| 20260503003603 | 49 | 0 | 0.0 | 0.0 | 0.00 | 0.01 | 0.00 | 79 | 1017.1 |